When you browse on this site, cookies collect data to enhance your experience and personalize the content and advertising you see.
Visit our Privacy Policy to learn more. By continuing to use the site, you agree to this use of cookies and data.
  • In Österreich
  • Länderverzeichnis
  • Für 7 Tage
  • Wassertemperatur
  • Satellitenkarten
  • Wetterkarte
  • News
  • Widgets
  • user-avatar
    Anmelden

    Stündliche Wetter Chester

    Heute, 13 Dezember, Donnerstag

    Zeit Temperatur Niederschläge Wind Luftdruck Luftfeuchtigkeit
    00:00 0°C° 0 mm 8 m/S 760 mmHg 76%
    01:00 0°C° 0 mm 8 m/S 760 mmHg 77%
    02:00 0°C° 0 mm 8 m/S 760 mmHg 77%
    03:00 0°C° 0 mm 9 m/S 760 mmHg 78%
    04:00 0°C° 0 mm 9 m/S 760 mmHg 78%
    05:00 0°C° 0 mm 9 m/S 759 mmHg 79%
    06:00 0°C° 0 mm 9 m/S 759 mmHg 79%
    07:00 0°C° 0 mm 8 m/S 760 mmHg 79%
    08:00 0°C° 0 mm 8 m/S 760 mmHg 78%
    09:00 0°C° 0 mm 8 m/S 760 mmHg 78%
    10:00 0°C° 0 mm 8 m/S 760 mmHg 75%
    11:00 +1°C° 0 mm 8 m/S 761 mmHg 73%
    12:00 +1°C° 0 mm 8 m/S 761 mmHg 70%
    13:00 +1°C° 0 mm 8 m/S 761 mmHg 71%
    14:00 +2°C° 0 mm 7 m/S 761 mmHg 71%
    15:00 +2°C° 0 mm 7 m/S 761 mmHg 72%
    16:00 +2°C° 0 mm 7 m/S 762 mmHg 74%
    17:00 +1°C° 0 mm 6 m/S 762 mmHg 76%
    18:00 +1°C° 0 mm 6 m/S 763 mmHg 78%
    19:00 +1°C° 0 mm 6 m/S 763 mmHg 79%
    20:00 0°C° 0 mm 5 m/S 764 mmHg 80%
    21:00 0°C° 0 mm 5 m/S 764 mmHg 82%
    22:00 0°C° 0 mm 5 m/S 764 mmHg 83%
    23:00 0°C° 0 mm 4 m/S 765 mmHg 84%

    Morgen, 14 Dezember, Freitag

    Zeit Temperatur Niederschläge Wind Luftdruck Luftfeuchtigkeit
    00:00 -1°C° 0 mm 4 m/S 765 mmHg 86%
    01:00 -1°C° 0 mm 4 m/S 765 mmHg 86%
    02:00 -1°C° 0 mm 4 m/S 765 mmHg 87%
    03:00 -1°C° 0 mm 4 m/S 765 mmHg 87%
    04:00 -1°C° 0 mm 4 m/S 765 mmHg 87%
    05:00 -1°C° 0 mm 4 m/S 766 mmHg 87%
    06:00 -1°C° 0 mm 4 m/S 766 mmHg 88%
    07:00 -1°C° 0 mm 4 m/S 766 mmHg 87%
    08:00 -1°C° 0 mm 4 m/S 766 mmHg 86%
    09:00 -1°C° 0 mm 4 m/S 766 mmHg 86%
    10:00 0°C° 0 mm 5 m/S 766 mmHg 80%
    11:00 +1°C° 0 mm 5 m/S 766 mmHg 74%
    12:00 +2°C° 0 mm 6 m/S 765 mmHg 68%
    13:00 +2°C° 0 mm 6 m/S 765 mmHg 70%
    14:00 +1°C° 0 mm 5 m/S 765 mmHg 71%
    15:00 +1°C° 0 mm 5 m/S 765 mmHg 72%
    16:00 +1°C° 0 mm 5 m/S 765 mmHg 75%
    17:00 -1°C° 0 mm 6 m/S 765 mmHg 78%
    18:00 -1°C° 0 mm 6 m/S 765 mmHg 81%
    19:00 -1°C° 0 mm 6 m/S 764 mmHg 80%
    20:00 -1°C° 0 mm 6 m/S 764 mmHg 80%
    21:00 -1°C° 0 mm 7 m/S 764 mmHg 79%
    22:00 -1°C° 0 mm 7 m/S 763 mmHg 78%
    23:00 -1°C° 0 mm 7 m/S 763 mmHg 78%

    übermorgen, 15 Dezember, Samstag

    Zeit Temperatur Niederschläge Wind Luftdruck Luftfeuchtigkeit
    00:00 -1°C° 0 mm 7 m/S 762 mmHg 77%
    01:00 -1°C° 0 mm 8 m/S 761 mmHg 76%
    02:00 -1°C° 0 mm 8 m/S 761 mmHg 74%
    03:00 0°C° 0 mm 9 m/S 760 mmHg 73%
    04:00 0°C° 0.6 mm 9 m/S 759 mmHg 75%
    05:00 0°C° 0.6 mm 9 m/S 758 mmHg 78%
    06:00 0°C° 0.6 mm 10 m/S 757 mmHg 80%
    07:00 0°C° 1 mm 10 m/S 757 mmHg 81%
    08:00 -1°C° 1 mm 11 m/S 756 mmHg 83%
    09:00 -1°C° 1 mm 11 m/S 755 mmHg 84%
    10:00 -1°C° 0.5 mm 11 m/S 754 mmHg 85%
    11:00 -1°C° 0.5 mm 11 m/S 753 mmHg 85%
    12:00 +1°C° 0.5 mm 11 m/S 752 mmHg 86%
    13:00 +1°C° 0.2 mm 11 m/S 751 mmHg 87%
    14:00 +2°C° 0.2 mm 11 m/S 749 mmHg 87%
    15:00 +2°C° 0.2 mm 11 m/S 748 mmHg 88%
    16:00 +3°C° 1.2 mm 11 m/S 746 mmHg 89%
    17:00 +4°C° 1.2 mm 12 m/S 743 mmHg 89%
    18:00 +5°C° 1.2 mm 12 m/S 741 mmHg 90%
    19:00 +6°C° 0.5 mm 11 m/S 741 mmHg 88%
    20:00 +7°C° 0.5 mm 11 m/S 740 mmHg 85%
    21:00 +8°C° 0.5 mm 10 m/S 739 mmHg 83%
    22:00 +7°C° 0.6 mm 11 m/S 740 mmHg 81%
    23:00 +6°C° 0.6 mm 11 m/S 742 mmHg 79%

    16 Dezember, Sonntag

    Zeit Temperatur Niederschläge Wind Luftdruck Luftfeuchtigkeit
    00:00 +4°C° 0.6 mm 12 m/S 743 mmHg 78%
    01:00 +4°C° 0.2 mm 11 m/S 745 mmHg 77%
    02:00 +3°C° 0.2 mm 9 m/S 746 mmHg 76%
    03:00 +4°C° 0.2 mm 8 m/S 748 mmHg 75%
    04:00 +4°C° 0 mm 7 m/S 749 mmHg 77%
    05:00 +3°C° 0 mm 7 m/S 749 mmHg 79%
    06:00 +3°C° 0 mm 6 m/S 750 mmHg 80%
    07:00 +3°C° 0 mm 5 m/S 751 mmHg 82%
    08:00 +2°C° 0 mm 5 m/S 751 mmHg 84%
    09:00 +3°C° 0 mm 4 m/S 752 mmHg 86%
    10:00 +4°C° 0 mm 4 m/S 752 mmHg 84%
    11:00 +5°C° 0 mm 4 m/S 752 mmHg 83%
    12:00 +6°C° 0 mm 5 m/S 752 mmHg 81%
    13:00 +6°C° 0.2 mm 4 m/S 752 mmHg 83%
    14:00 +6°C° 0.2 mm 4 m/S 752 mmHg 85%
    15:00 +5°C° 0.2 mm 3 m/S 752 mmHg 87%
    16:00 +5°C° 0.5 mm 3 m/S 753 mmHg 89%
    17:00 +5°C° 0.5 mm 3 m/S 753 mmHg 90%
    18:00 +4°C° 0.5 mm 3 m/S 753 mmHg 92%
    19:00 +5°C° 0.1 mm 2 m/S 754 mmHg 92%
    20:00 +5°C° 0.1 mm 2 m/S 754 mmHg 92%
    21:00 +5°C° 0.1 mm 2 m/S 754 mmHg 92%
    22:00 +4°C° 0 mm 2 m/S 755 mmHg 91%
    23:00 +4°C° 0 mm 2 m/S 755 mmHg 90%

    17 Dezember, Montag

    Zeit Temperatur Niederschläge Wind Luftdruck Luftfeuchtigkeit
    00:00 +4°C° 0 mm 2 m/S 756 mmHg 89%
    01:00 +4°C° 0 mm 2 m/S 756 mmHg 89%
    02:00 +4°C° 0 mm 2 m/S 756 mmHg 89%
    03:00 +3°C° 0 mm 2 m/S 756 mmHg 89%
    04:00 +3°C° 0 mm 2 m/S 757 mmHg 89%
    05:00 +3°C° 0 mm 2 m/S 757 mmHg 89%
    06:00 +3°C° 0 mm 2 m/S 758 mmHg 89%
    07:00 +3°C° 0 mm 2 m/S 758 mmHg 89%
    08:00 +2°C° 0 mm 3 m/S 759 mmHg 89%
    09:00 +2°C° 0 mm 3 m/S 759 mmHg 89%
    10:00 +3°C° 0 mm 3 m/S 759 mmHg 88%
    11:00 +4°C° 0 mm 3 m/S 760 mmHg 86%
    12:00 +5°C° 0 mm 3 m/S 760 mmHg 84%
    13:00 +5°C° 0 mm 3 m/S 760 mmHg 86%
    14:00 +5°C° 0 mm 3 m/S 759 mmHg 87%
    15:00 +5°C° 0 mm 4 m/S 759 mmHg 88%
    16:00 +4°C° 0 mm 4 m/S 759 mmHg 89%
    17:00 +4°C° 0 mm 4 m/S 759 mmHg 90%
    18:00 +3°C° 0 mm 5 m/S 759 mmHg 91%
    19:00 +3°C° 0 mm 5 m/S 759 mmHg 91%
    20:00 +3°C° 0 mm 6 m/S 758 mmHg 91%
    21:00 +4°C° 0 mm 6 m/S 758 mmHg 91%
    22:00 +4°C° 0 mm 7 m/S 758 mmHg 90%
    23:00 +5°C° 0 mm 7 m/S 757 mmHg 90%

    18 Dezember, Dienstag

    Zeit Temperatur Niederschläge Wind Luftdruck Luftfeuchtigkeit
    00:00 +6°C° 0 mm 8 m/S 757 mmHg 89%
    01:00 +6°C° 0 mm 8 m/S 756 mmHg 89%
    02:00 +7°C° 0 mm 9 m/S 755 mmHg 89%
    03:00 +7°C° 0 mm 9 m/S 754 mmHg 89%
    04:00 +7°C° 0.1 mm 9 m/S 753 mmHg 88%
    05:00 +8°C° 0.1 mm 9 m/S 752 mmHg 87%
    06:00 +8°C° 0.1 mm 9 m/S 751 mmHg 86%
    07:00 +8°C° 0.2 mm 10 m/S 751 mmHg 86%
    08:00 +8°C° 0.2 mm 10 m/S 751 mmHg 85%
    09:00 +8°C° 0.2 mm 10 m/S 751 mmHg 85%
    10:00 +8°C° 0.8 mm 10 m/S 750 mmHg 85%
    11:00 +7°C° 0.8 mm 10 m/S 750 mmHg 85%
    12:00 +7°C° 0.8 mm 10 m/S 750 mmHg 85%
    13:00 +7°C° 0.8 mm 9 m/S 749 mmHg 86%
    14:00 +7°C° 0.8 mm 8 m/S 749 mmHg 86%
    15:00 +6°C° 0.8 mm 7 m/S 749 mmHg 86%
    16:00 +6°C° 0.7 mm 7 m/S 748 mmHg 87%
    17:00 +7°C° 0.7 mm 6 m/S 748 mmHg 88%
    18:00 +5°C° 0.7 mm 6 m/S 748 mmHg 89%
    19:00 +5°C° 0.9 mm 6 m/S 748 mmHg 90%
    20:00 +6°C° 0.9 mm 5 m/S 748 mmHg 90%
    21:00 +6°C° 0.9 mm 5 m/S 747 mmHg 90%
    22:00 +6°C° 1.1 mm 4 m/S 747 mmHg 91%
    23:00 +5°C° 1.1 mm 4 m/S 747 mmHg 91%
    Mehr zeigen